Regional Weather Roundup
Issued by NWS

Home | Current Version | Previous Version | Text Only | Print | Product List | Glossary On
Versions: 1 2 3 4 5 6 7 8 9 10 11 12 13 14 15 16 17 18 19 20 21 22 23 24 25 26 27 28 29 30 31 32 33 34 35 36 37 38 39 40 41 42 43 44 45 46 47 48 49 50
000
ASUS43 KDTX 121310
RWRMI
MICHIGAN HOURLY REGIONAL WEATHER ROUNDUP
NATIONAL WEATHER SERVICE DETROIT/PONTIAC MI
800 AM EST FRI FEB 12 2016

NOTE: "FAIR" INDICATES FEW OR NO CLOUDS BELOW 12,000 FEET WITH NO
SIGNIFICANT WEATHER AND/OR OBSTRUCTION TO VISIBILITY.

MIZ047>049-052>055-059>063-066>070-074>076-081>083-121400-
SOUTHEAST LOWER MICHIGAN

CITY           SKY/WX    TMP DP  RH WIND       PRES   REMARKS
ADRIAN         CLOUDY    16   9  74 SW9       30.09F WCI   4
ALMA           CLOUDY    21  12  67 W8G18     30.01F WCI  11
ANN ARBOR      CLOUDY    16   8  71 SW8       30.07F WCI   5
BAD AXE        CLOUDY    15   9  77 SW9       29.98S WCI   3
CARO           CLOUDY    14   9  79 S9        29.99F WCI   2
DETROIT CITY   CLOUDY    17   7  64 SW12      30.07F WCI   4
DETROIT        CLOUDY    17   8  67 SW16      30.10F WCI   2
FLINT          CLOUDY    17   7  64 SW12      30.03F WCI   4
GROSSE ILE     CLOUDY    18   9  68 SW8       30.09F WCI   7
HILLSDALE      CLOUDY    16   6  65 SW7       30.05F WCI   6
HOWELL         CLOUDY    16   9  73 SW8       30.03F WCI   5

CITY           SKY/WX    TMP DP  RH WIND       PRES   REMARKS
JACKSON        CLOUDY    17   7  64 SW12      30.04F WCI   4
LAMBERTVILLE   CLOUDY    17   9  72 SW7       30.12F WCI   7
LANSING        CLOUDY    17   9  70 SW12      30.03F WCI   4
LAPEER         CLOUDY    14   9  78 SW10      30.01F WCI   2
MASON          CLOUDY    17   9  72 SW7       30.03F WCI   7
MONROE         CLOUDY    17   9  70 SW10      30.10F WCI   5
MT. CLEMENS    CLOUDY    16   8  68 SW13      30.05F WCI   2
PONTIAC        CLOUDY    14   7  73 SW7       30.02F WCI   4
PORT HOPE        N/A     14   8  77 SW12G20   29.95F WCI   0
PORT HURON     CLOUDY    14   9  79 SW6       30.04F WCI   5
TRI CITIES     CLOUDY    21  10  62 SW14      30.00F WCI   8
MIDLAND        CLOUDY    19  10  68 W7        30.00S WCI  10
TROY           CLOUDY    17   9  71 SW9       30.07F WCI   5
SAGINAW HB     CLOUDY    19  12  73 SW12      30.00F WCI   7
$$
MIZ043>046-050>051-056>058-064>065-071>073-077>080-121400-
SOUTHWEST LOWER MICHIGAN

CITY           SKY/WX    TMP DP  RH WIND       PRES   REMARKS
BATTLE CREEK   CLOUDY    17   8  67 SW12      30.05F WCI   4
BENTON HARBOR  CLOUDY    23  12  62 W14       30.10F WCI  11
BIG RAPIDS     CLOUDY    18  12  78 W8        29.98S WCI   7
COLDWATER      CLOUDY    17   8  67 SW9       30.08F WCI   6
FREMONT        CLOUDY    19  10  68 W9        30.02F WCI   8
HOLLAND        CLOUDY    23  10  57 W16G23    30.06F WCI  10
GRAND RAPIDS   CLOUDY    20  12  71 SW8       30.03F WCI  10
IONIA          CLOUDY    19  11  70 SW13      30.01F WCI   6
KALAMAZOO      CLOUDY    17   8  67 SW9       30.06F WCI   6
LUDINGTON      CLOUDY    19   8  63 NW14G23   30.04S WCI   6
MARSHALL       CLOUDY    17   9  69 SW10      30.05F WCI   5
MOUNT PLEASANT CLOUDY    20   9  63 W13       29.99S WCI   7
MUSKEGON       FLURRIES  21  11  65 NW13G22   30.05F WCI   9
SOUTH HAVEN    CLOUDY    24  12  61 W13G22    30.08F WCI  12
$$
MIZ016>042-121400-
NORTHERN LOWER MICHIGAN

CITY           SKY/WX    TMP DP  RH WIND       PRES   REMARKS
ALPENA         LGT SNOW  14  10  84 SW7       29.91S FOG     WCI   4
BEAVER ISLAND  PTCLDY    16   9  73 W16G25    29.93S WCI   0
BELLAIRE       CLOUDY    19  10  69 NW6G20    29.95F WCI  11
CADILLAC       LGT SNOW  15   9  76 W8        29.92S WCI   4
CHARLEVOIX     CLOUDY    18   6  58 W22G29    29.96S HAZE    WCI   1
FRANKFORT      CLOUDY    18   6  58 NW17G23   30.00F WCI   3
GAYLORD        LGT SNOW  14  10  84 W8        29.87S VSB 3/4 WCI   3
GRAYLING       LGT SNOW  14  10  86 W7        29.90F WCI   4
HARBOR SPRINGS CLOUDY    17   5  60 W14G22    29.91S WCI   3
HOUGHTON LAKE  CLOUDY    15   8  73 W10       29.93F WCI   2
MANISTEE       CLOUDY    18   3  53 W20       30.02S WCI   1
OSCODA         CLOUDY    15   8  73 SW12      29.94F WCI   2
PELLSTON       CLOUDY    15   5  64 W14       29.91S WCI   0
ROGERS CITY    CLOUDY    15   8  73 W8        29.90F WCI   4
TRAVERSE CITY  FLURRIES  18   7  62 W21       29.97S WCI   1
$$
MIZ007>008-015-121400-
EASTERN UPPER MICHIGAN

CITY           SKY/WX    TMP DP  RH WIND       PRES   REMARKS
KINROSS        CLOUDY    10   9  92 N7        29.87R WCI   0
MACKINAC ISLAN PTCLDY    13   8  81 W18G29    29.87F WCI  -4
NEWBERRY       SNOW      10   7  89 W12       29.87S VSB 1/4 WCI  -5
S. S. MARIE    LGT SNOW  10   5  80 NE3       29.87S VSB 1
MUNISING         N/A     15   6  67 NW14G25   29.94S WCI   0
$$
MIZ004>006-011>014-085-121400-
CENTRAL UPPER MICHIGAN

CITY           SKY/WX    TMP DP  RH WIND       PRES   REMARKS
MANISTIQUE     PTCLDY     8   2  76 W10G16    29.95S WCI  -6
ESCANABA       CLEAR      5  -2  72 W8        30.01S WCI  -8
MENOMINEE      CLEAR     10  -2  56 W8        30.04S WCI  -1
SAWYER-GWINN   CLEAR     -6  -8  92 W3        29.93S
$$
MIZ001>003-009>011-084-121400-
WESTERN UPPER MICHIGAN

CITY           SKY/WX    TMP DP  RH WIND       PRES   REMARKS
IRON MOUNTAIN  CLEAR      8  -1  66 W12       29.97S WCI  -7
HOUGHTON       HAZE       7   0  73 N21G36    29.99R VSB 1/2 WCI -13
COPPER HARBOR    N/A     10   7  87 NE25G40   30.02R WCI -11
IRONWOOD       CLOUDY     7   0  72 NW16G26   30.06R WCI -11
$$

ABBREVIATIONS USED IN REMARKS
   TC - TEMPERATURE IN CELSIUS
  WCI - WIND CHILL INDEX
   HX - HEAT INDEX
  VSB - VISIBILITY




USA.gov is the U.S. government's official web portal to all federal, state and local government web resources and services.